(247491) = 2002 NC55

Discovered at Palomar on 2002-07-05 by NEAT.

Orbit

Orbit type: Main Belt

Note: WebGL enabled browser required.

epoch2023-02-25.0
epoch JD2460000.5
perihelion date2020-03-02.52208
perihelion JD2458911.02208
argument of perihelion (°)348.04576
ascending node (°)328.33265
inclination (°)2.36654
eccentricity0.2022575
perihelion distance (AU)2.1334611
Tisserand w.r.t. Jupiter3.3
ΔV w.r.t. Earth (km/sec)9.2
semimajor axis (AU)2.6743732
mean anomaly (°)245.52134
mean daily motion (°/day)0.22535690
aphelion distance (AU)3.215
period (years)4.37
P-vector [x]0.72400463
P-vector [y]-0.62942385
P-vector [z]-0.28221077
Q-vector [x]0.68945440
Q-vector [y]0.64745570
Q-vector [z]0.32473643
absolute magnitude17.01
phase slope0.15
uncertainty0
referenceMPO 745323
observations used293
oppositions14
arc length (days)7596
first opposition used2002
last opposition used2023
residual rms (arc-secs)0.86
perturbers coarse indicatorM-v
perturbers precise indicator003Ek
first observation date used2002-07-05.0
last observation date used2023-04-22.0
computer nameMPCLINUX
JD of orbit computation2456760.888477
perihelion JD uncertainty (days)5.7014E-05
argument of perihelion uncertainty (°)1.0076E-04
ascending node uncertainty (°)9.9864E-05
inclination uncertainty (°)6.0868E-06
eccentricity uncertainty 4.8958E-08
perihelion distance uncertainty (AU)1.2953E-07
Minimum Orbit Intersection Distances (in AU)
for orbit epoch: 2460000.5, reference: E2023-FF8
Mercury1.70803
Venus1.40625
Earth1.11876
Mars0.742
Jupiter2.07462
Saturn5.94152
Uranus15.2754
Neptune27.0872

Observations

297 total observations over interval: 2002 07 05.42865 – 2023 04 22.334609
These data are available for download (format description).

Date (UT) J2000 RA J2000 Dec Magn Location Ref
2002 07 05.42865 20 36 40.41 -21 01 45.0 19.6   644 – Palomar Mountain/NEAT MPS 60061
2002 07 05.43905 20 36 40.01 -21 01 45.7 19.8   644 – Palomar Mountain/NEAT MPS 60061
2002 07 05.44949 20 36 39.60 -21 01 46.6 19.8   644 – Palomar Mountain/NEAT MPS 60061
2002 07 09.28380 20 34 12.27 -21 07 30.1 19.8   644 – Palomar Mountain/NEAT MPS 60061
2002 07 09.36723 20 34 08.59 -21 07 38.4 19.6   644 – Palomar Mountain/NEAT MPS 60061
2002 07 09.43346 20 34 05.68 -21 07 44.4 19.6   644 – Palomar Mountain/NEAT MPS 60061
2002 07 14.31824 20 30 28.58 -21 15 43.2 19.0 R 644 – Palomar Mountain/NEAT MPS 160380
2002 07 14.39421 20 30 24.75 -21 15 51.0 19.2 R 644 – Palomar Mountain/NEAT MPS 160380
2002 07 22.23605 20 23 49.47 -21 28 50.1   644 – Palomar Mountain/NEAT MPS 160380
2002 07 22.25679 20 23 48.35 -21 28 52.5   644 – Palomar Mountain/NEAT MPS 160380
2002 07 22.27646 20 23 47.27 -21 28 54.1 19.1 R 644 – Palomar Mountain/NEAT MPS 160380
2002 08 08.22009 20 09 09.13 -21 48 31.9 19.4 R 644 – Palomar Mountain/NEAT MPS 160380
2002 08 08.24130 20 09 08.07 -21 48 32.7 19.1 R 644 – Palomar Mountain/NEAT MPS 160380
2002 08 08.26256 20 09 07.03 -21 48 33.6 19.0 R 644 – Palomar Mountain/NEAT MPS 160380
2002 08 18.17419 20 02 29.24 -21 50 03.9   644 – Palomar Mountain/NEAT MPS 160380
2002 08 18.19492 20 02 28.55 -21 50 03.4 19.2 R 644 – Palomar Mountain/NEAT MPS 160380
2002 08 28.17211 19 58 33.44 -21 42 52.2 19.8 R 644 – Palomar Mountain/NEAT MPS 160380
2002 08 28.19322 19 58 33.09 -21 42 50.8 19.6 R 644 – Palomar Mountain/NEAT MPS 160380
2002 08 28.21463 19 58 32.72 -21 42 49.2   644 – Palomar Mountain/NEAT MPS 160380
2002 08 29.16685 19 58 20.37 -21 41 41.1   644 – Palomar Mountain/NEAT MPS 160380
2002 08 29.18804 19 58 20.06 -21 41 39.6 19.8 R 644 – Palomar Mountain/NEAT MPS 160380
2005 03 08.27770 10 03 35.51 +11 32 24.9 21.2 R G96 – Mt. Lemmon Survey MPS 223352
2005 03 08.28375 10 03 35.19 +11 32 25.9 21.3 R G96 – Mt. Lemmon Survey MPS 223352
2005 03 08.28980 10 03 34.90 +11 32 27.5 21.2 R G96 – Mt. Lemmon Survey MPS 223352
2005 03 08.29586 10 03 34.61 +11 32 28.9 20.2 R G96 – Mt. Lemmon Survey MPS 223352
2007 10 15.37509 03 07 39.21 +21 13 54.1 21.0 V 691 – Steward Observatory, Kitt Peak-Spacewatch MPS 223352
2007 10 15.39628 03 07 38.22 +21 13 51.7 20.7 V 691 – Steward Observatory, Kitt Peak-Spacewatch MPS 223352
2007 10 15.41398 03 07 37.42 +21 13 49.7 20.7 V 691 – Steward Observatory, Kitt Peak-Spacewatch MPS 223352
2007 10 19.35112 03 04 31.34 +21 05 23.0 21.0 V 691 – Steward Observatory, Kitt Peak-Spacewatch MPS 223352
2007 10 19.36885 03 04 30.36 +21 05 20.4 20.6 V 691 – Steward Observatory, Kitt Peak-Spacewatch MPS 223352
2007 10 19.38658 03 04 29.54 +21 05 17.9 20.6 V 691 – Steward Observatory, Kitt Peak-Spacewatch MPS 223352
2007 11 02.14604 02 51 47.12 +20 21 28.7 20.4 V 691 – Steward Observatory, Kitt Peak-Spacewatch MPS 223352
2007 11 02.16370 02 51 46.00 +20 21 24.6 20.3 V 691 – Steward Observatory, Kitt Peak-Spacewatch MPS 223352
2007 11 02.17898 02 51 45.09 +20 21 20.7 20.0 V 691 – Steward Observatory, Kitt Peak-Spacewatch MPS 223352
2007 11 02.30321 02 51 37.58 +20 20 52.2 20.0 V G96 – Mt. Lemmon Survey MPS 224680
2007 11 02.31149 02 51 37.08 +20 20 50.4 20.0 V G96 – Mt. Lemmon Survey MPS 224680
2007 11 02.31970 02 51 36.57 +20 20 48.6 19.9 V G96 – Mt. Lemmon Survey MPS 224680
2007 11 02.32786 02 51 36.07 +20 20 46.6 20.0 V G96 – Mt. Lemmon Survey MPS 224680
2007 11 04.16332 02 49 47.76 +20 13 31.6   691 – Steward Observatory, Kitt Peak-Spacewatch MPS 224680
2007 11 04.18100 02 49 46.66 +20 13 27.8   691 – Steward Observatory, Kitt Peak-Spacewatch MPS 224680
2007 11 04.19869 02 49 45.65 +20 13 23.3   691 – Steward Observatory, Kitt Peak-Spacewatch MPS 224680
2007 11 14.10872 02 40 10.27 +19 31 08.8 20.2 V 691 – Steward Observatory, Kitt Peak-Spacewatch MPS 226742
2007 11 14.12638 02 40 09.24 +19 31 04.3 20.2 V 691 – Steward Observatory, Kitt Peak-Spacewatch MPS 226742
2007 11 14.14402 02 40 08.26 +19 30 59.8 20.5 V 691 – Steward Observatory, Kitt Peak-Spacewatch MPS 226742
2009 02 14.29012 08 23 54.06 +20 25 52.0 21.3 V G96 – Mt. Lemmon Survey MPS 276457
2009 02 14.29741 08 23 53.70 +20 25 52.5 21.9 V G96 – Mt. Lemmon Survey MPS 276457
2009 02 14.30476 08 23 53.30 +20 25 53.7 22.0 V G96 – Mt. Lemmon Survey MPS 276457
2009 02 14.31206 08 23 52.94 +20 25 55.0 22.0 V G96 – Mt. Lemmon Survey MPS 276457
2010 01 15.491846 13 23 22.454 -10 20 27.42   C51 – WISE MPS 879295
2010 01 15.624150 13 23 27.660 -10 21 07.06   C51 – WISE MPS 879295
2010 01 15.756455 13 23 32.765 -10 21 45.83   C51 – WISE MPS 879295
2010 01 15.822671 13 23 35.479 -10 22 02.78   C51 – WISE MPS 879295
2010 01 15.954976 13 23 40.776 -10 22 41.66   C51 – WISE MPS 879295
2010 04 12.413800 13 05 41.077 -10 05 25.23 20.95 g F51 – Pan-STARRS 1, Haleakala MPS 337283
2010 04 12.422205 13 05 40.622 -10 05 22.90 20.90 g F51 – Pan-STARRS 1, Haleakala MPS 337283
2010 04 15.29103 13 03 07.99 -09 51 13.9 20.3 V G96 – Mt. Lemmon Survey MPS 322168
2010 04 15.29861 13 03 07.56 -09 51 11.9 20.6 V G96 – Mt. Lemmon Survey MPS 322168
2010 04 15.30632 13 03 07.16 -09 51 10.2 20.4 V G96 – Mt. Lemmon Survey MPS 322168
2010 04 15.31396 13 03 06.76 -09 51 07.2 20.5 V G96 – Mt. Lemmon Survey MPS 322168
2010 07 01.374426 12 49 50.287 -08 01 29.24   C51 – WISE MPS 903743
2010 07 01.639028 12 50 00.83 -08 02 25.4   C51 – WISE MPS 344797
2010 07 01.771332 12 50 06.16 -08 02 54.1   C51 – WISE MPS 344797
2010 07 01.903635 12 50 11.47 -08 03 21.5   C51 – WISE MPS 344797
2010 07 01.969851 12 50 14.12 -08 03 38.6   C51 – WISE MPS 344797
2010 07 02.035940 12 50 16.76 -08 03 51.8   C51 – WISE MPS 344797
2010 07 02.168243 12 50 22.19 -08 04 20.6   C51 – WISE MPS 344797
2010 07 02.234458 12 50 24.84 -08 04 35.0   C51 – WISE MPS 344797
2010 07 02.366635 12 50 30.24 -08 05 04.1   C51 – WISE MPS 344797
2010 07 02.366763 12 50 30.30 -08 05 05.6   C51 – WISE MPS 344797
2010 07 02.498939 12 50 35.81 -08 05 32.8   C51 – WISE MPS 344797
2010 07 02.631242 12 50 41.13 -08 06 01.9   C51 – WISE MPS 344797
2011 08 20.48783 23 38 28.389 -01 16 11.17 20.0 r F51 – Pan-STARRS 1, Haleakala MPS 389118
2011 08 20.49823 23 38 28.015 -01 16 12.28 20.0 r F51 – Pan-STARRS 1, Haleakala MPS 389118
2011 08 20.52214 23 38 27.153 -01 16 14.88 19.8 i F51 – Pan-STARRS 1, Haleakala MPS 389118
2011 08 23.47559 23 36 42.680 -01 22 14.18 20.1 g F51 – Pan-STARRS 1, Haleakala MPS 389118
2011 08 23.53307 23 36 40.366 -01 22 22.01 19.6 r F51 – Pan-STARRS 1, Haleakala MPS 389118
2011 08 23.54343 23 36 39.950 -01 22 23.42 19.7 r F51 – Pan-STARRS 1, Haleakala MPS 389118
2011 08 31.59022 23 30 59.937 -01 44 49.09 20.0 i F51 – Pan-STARRS 1, Haleakala MPS 391021
2011 08 31.59613 23 30 59.665 -01 44 50.22 19.9 i F51 – Pan-STARRS 1, Haleakala MPS 391021
2011 08 31.59908 23 30 59.522 -01 44 50.82 19.9 i F51 – Pan-STARRS 1, Haleakala MPS 391021
2011 08 31.60206 23 30 59.380 -01 44 51.23 19.8 i F51 – Pan-STARRS 1, Haleakala MPS 391021
2011 08 31.60502 23 30 59.234 -01 44 51.86 19.8 i F51 – Pan-STARRS 1, Haleakala MPS 391022
2011 08 31.60798 23 30 59.094 -01 44 52.42 19.9 i F51 – Pan-STARRS 1, Haleakala MPS 391022
2011 09 01.58235 23 30 13.693 -01 48 05.31 19.7 z F51 – Pan-STARRS 1, Haleakala MPS 391022
2011 09 01.58531 23 30 13.532 -01 48 06.15 19.8 z F51 – Pan-STARRS 1, Haleakala MPS 391022
2011 09 01.58827 23 30 13.392 -01 48 06.44 19.7 z F51 – Pan-STARRS 1, Haleakala MPS 391022
2011 09 01.59123 23 30 13.258 -01 48 07.16 19.8 z F51 – Pan-STARRS 1, Haleakala MPS 391022
2011 09 01.59419 23 30 13.106 -01 48 07.66 19.7 z F51 – Pan-STARRS 1, Haleakala MPS 391022
2011 09 01.60010 23 30 12.818 -01 48 08.90 19.7 z F51 – Pan-STARRS 1, Haleakala MPS 391022
2011 09 04.56650 23 27 50.432 -01 58 27.02 19.8 z F51 – Pan-STARRS 1, Haleakala MPS 391022
2011 09 04.57839 23 27 49.823 -01 58 29.80 19.7 z F51 – Pan-STARRS 1, Haleakala MPS 391022
2011 09 04.58137 23 27 49.663 -01 58 30.14 19.8 z F51 – Pan-STARRS 1, Haleakala MPS 391022
2011 09 18.29740 23 16 23.88 -02 51 19.4 18.8 V 703 – Catalina Sky Survey MPS 392476
2011 09 18.30476 23 16 23.55 -02 51 20.0 19.2 V 703 – Catalina Sky Survey MPS 392476
2011 09 18.31211 23 16 23.05 -02 51 21.9 19.1 V 703 – Catalina Sky Survey MPS 392476
